Salem, OR

11:02 PM PST on December 16, 2017 (GMT -0800)
McNary

Weather History for KSLE - February, 2013

Change the Weather History Date:

Monday, February 11, 2013

  Actual Average Record
Temperature  
Mean Temperature 44 °F 43 °F  
Max Temperature 47 °F 51 °F 64 °F (1924)
Min Temperature 40 °F 34 °F 15 °F (1929)
Degree Days  
Heating Degree Days 21 22  
Month to date heating degree days 244 249  
Since 1 July heating degree days 2711 2876  
Cooling Degree Days 0 0  
Month to date cooling degree days 0 0  
Year to date cooling degree days 0 0  
Moisture  
Dew Point 38 °F    
Average Humidity 79    
Maximum Humidity 92    
Minimum Humidity 65    
Precipitation  
Precipitation T in 0.17 in 1.00 in (1958)
Month to date precipitation 0.42 1.88  
Year to date precipitation 2.05 7.84  
Snow  
Snow 0.00 in - - ()
Month to date snowfall 0.0  
Snow Depth 0.00 in    
Sea Level Pressure  
Sea Level Pressure 30.38 in    
Wind  
Wind Speed 5 mph (SSE)    
Max Wind Speed 12 mph    
Max Gust Speed 15 mph    
Visibility 10 miles    
Events Rain    
T = Trace of Precipitation, MM = Missing Value Source: NWS Daily Summary

Daily Weather History Graph

Daily Weather History Graph

Search for Another Location

Airport or City:

Trip Planner

Search our weather history database for the weather conditions in past years. The results will help you decide how hot, cold, wet, or windy it might be!

Date:

Astronomy

Feb. 11, 2013 Rise Set
Actual Time 7:18 AM PST 5:35 PM PST
Civil Twilight 6:47 AM PST 6:05 PM PST
Nautical Twilight 6:13 AM PST 6:39 PM PST
Astronomical Twilight 5:39 AM PST 7:13 PM PST
Moon 7:39 AM PST (2/11) 7:45 PM PST (2/11)
Length of Visible Light 11h 17m
Length of Day
10h 16m
Waxing Crescent, 3% of the Moon is Illuminated
Feb 11
Waxing Crescent
Feb 17
First Quarter
Feb 25
Full
Mar 4
Last Quarter
Mar 11
New

Hourly Weather History & Observations

Time (PST) Temp. Windchill Dew Point Humidity Pressure Visibility Wind Dir Wind Speed Gust Speed Precip Events Conditions
12:56 AM 42.1 °F - 37.0 °F 82% 30.32 in 10.0 mi Calm Calm - N/A   Overcast
1:56 AM 42.1 °F 40.2 °F 37.0 °F 82% 30.34 in 10.0 mi North 3.5 mph - N/A   Overcast
2:56 AM 42.1 °F 38.4 °F 37.0 °F 82% 30.35 in 10.0 mi NNW 5.8 mph - N/A   Overcast
3:56 AM 42.1 °F 40.2 °F 37.0 °F 82% 30.35 in 10.0 mi NNE 3.5 mph - N/A   Overcast
4:56 AM 41.0 °F - 37.0 °F 86% 30.35 in 10.0 mi Calm Calm - N/A   Overcast
5:07 AM 41.0 °F - 37.4 °F 87% 30.35 in 10.0 mi Calm Calm - N/A   Overcast
5:56 AM 41.0 °F - 37.0 °F 86% 30.37 in 10.0 mi Calm Calm - N/A   Overcast
6:56 AM 41.0 °F - 37.9 °F 89% 30.38 in 10.0 mi Calm Calm - N/A   Overcast
7:56 AM 41.0 °F 39.0 °F 37.0 °F 86% 30.38 in 10.0 mi SSW 3.5 mph - N/A   Overcast
8:56 AM 43.0 °F - 37.0 °F 80% 30.38 in 10.0 mi Calm Calm - N/A   Overcast
9:56 AM 45.0 °F - 36.0 °F 71% 30.39 in 10.0 mi Calm Calm - N/A   Overcast
10:56 AM 46.0 °F 43.9 °F 36.0 °F 68% 30.40 in 10.0 mi South 4.6 mph - N/A   Overcast
11:31 AM 46.4 °F - 35.6 °F 66% 30.40 in 10.0 mi Calm Calm - N/A   Overcast
11:56 AM 46.0 °F 42.5 °F 37.0 °F 71% 30.40 in 10.0 mi South 6.9 mph - N/A   Overcast
12:56 PM 46.0 °F 43.1 °F 37.0 °F 71% 30.39 in 10.0 mi SSE 5.8 mph - N/A   Overcast
1:56 PM 46.9 °F - 37.9 °F 71% 30.38 in 10.0 mi South 9.2 mph - N/A   Overcast
2:56 PM 46.9 °F - 37.9 °F 71% 30.38 in 10.0 mi SSE 11.5 mph - N/A   Overcast
3:56 PM 46.9 °F - 37.9 °F 71% 30.38 in 10.0 mi South 10.4 mph - N/A   Overcast
4:56 PM 46.0 °F 43.1 °F 39.0 °F 76% 30.38 in 10.0 mi SSE 5.8 mph - N/A   Overcast
5:56 PM 45.0 °F 42.6 °F 39.9 °F 82% 30.38 in 10.0 mi SE 4.6 mph - 0.00 in Rain Light Rain
6:56 PM 45.0 °F 42.6 °F 41.0 °F 86% 30.39 in 10.0 mi SSE 4.6 mph - 0.00 in   Overcast
7:56 PM 44.1 °F 40.1 °F 42.1 °F 93% 30.39 in 10.0 mi SSE 6.9 mph - N/A   Overcast
8:56 PM 44.1 °F 40.1 °F 42.1 °F 93% 30.39 in 10.0 mi SSE 6.9 mph - N/A   Overcast
9:56 PM 45.0 °F 40.6 °F 42.1 °F 90% 30.38 in 10.0 mi SSE 8.1 mph - N/A   Overcast
10:56 PM 45.0 °F 43.5 °F 42.1 °F 90% 30.39 in 10.0 mi SSE 3.5 mph - N/A   Overcast
11:56 PM 45.0 °F 42.6 °F 42.1 °F 90% 30.40 in 10.0 mi SSE 4.6 mph - N/A   Overcast